VOL4706 ENVA-LEMH

Flight info

Callsign VOL4706
Flight time 3h 32m
Altitude 32000
Route UTUNA M609 RIPAM/N0454F330 DCT BINRO/N0455F340 T551 AAL P615 ALS M852 ALASA/N0453F350 M852 EKERN/N0454F360 N125 ELSOB N850 GISEM/ DCT FKS/N0450F370 Y163 NATOR N850 ODINA DCT GAPDO DCT KOLON DCT STP DCT SURJU DCT RIXOT
Aircraft B38M/M-SDE1FGHILORVWXY/HB1

Departure

Time 2026-04-18 08:09
Airport Trondheim Airport, Værnes (ENVA)

Arrival

Time 2026-04-18 11:41
Airport Menorca Airport (LEMH)
Time Latitude Longitude Altitude Speed Heading
2026-04-18 07:22 63.45503 10.91994 45 ft 0 kts 180°
2026-04-18 08:01 63.45508 10.91994 45 ft 2 kts 178°
2026-04-18 08:01 63.45524 10.91993 52 ft 2 kts 181°
2026-04-18 08:01 63.45541 10.91995 44 ft 2 kts 193°
2026-04-18 08:01 63.45554 10.92015 45 ft 2 kts 249°
2026-04-18 08:02 63.45556 10.92037 43 ft 1 kts 264°
2026-04-18 08:02 63.45556 10.92038 43 ft 0 kts 264°
2026-04-18 08:04 63.45555 10.92009 45 ft 4 kts 267°
2026-04-18 08:05 63.45555 10.91922 44 ft 7 kts 270°
2026-04-18 08:05 63.45555 10.91791 43 ft 9 kts 270°
2026-04-18 08:05 63.45555 10.91642 43 ft 10 kts 272°
2026-04-18 08:05 63.45557 10.91477 43 ft 11 kts 270°
2026-04-18 08:06 63.45557 10.91315 45 ft 11 kts 269°
2026-04-18 08:06 63.45579 10.91143 42 ft 13 kts 301°
2026-04-18 08:06 63.45596 10.90927 41 ft 15 kts 267°
2026-04-18 08:06 63.45596 10.90661 36 ft 19 kts 271°
2026-04-18 08:07 63.45598 10.90336 31 ft 23 kts 271°
2026-04-18 08:07 63.45600 10.89959 27 ft 25 kts 269°
2026-04-18 08:07 63.45599 10.89564 27 ft 26 kts 270°
2026-04-18 08:07 63.45600 10.89166 26 ft 26 kts 272°
2026-04-18 08:08 63.45612 10.88855 28 ft 20 kts 289°
2026-04-18 08:08 63.45709 10.88674 25 ft 16 kts 352°
2026-04-18 08:08 63.45762 10.88820 27 ft 18 kts 90°
2026-04-18 08:08 63.45760 10.89650 28 ft 91 kts 89°
2026-04-18 08:09 63.45759 10.91580 40 ft 154 kts 90°
2026-04-18 08:09 63.45758 10.94275 376 ft 185 kts 92°
2026-04-18 08:09 63.45773 10.97186 1288 ft 186 kts 94°
2026-04-18 08:09 63.45766 11.00052 2360 ft 184 kts 97°
2026-04-18 08:10 63.45744 11.03015 2909 ft 204 kts 97°
2026-04-18 08:10 63.45729 11.06365 3362 ft 226 kts 98°
2026-04-18 08:10 63.45718 11.09941 4100 ft 231 kts 97°
2026-04-18 08:10 63.45701 11.13615 4804 ft 242 kts 95°
2026-04-18 08:11 63.45686 11.17358 5784 ft 241 kts 95°
2026-04-18 08:11 63.45673 11.21139 6604 ft 245 kts 95°
2026-04-18 08:11 63.45660 11.24951 7453 ft 247 kts 95°
2026-04-18 08:11 63.45536 11.28819 8099 ft 255 kts 110°
2026-04-18 08:12 63.44657 11.32281 8482 ft 263 kts 140°
2026-04-18 08:12 63.43101 11.34300 9064 ft 265 kts 167°
2026-04-18 08:12 63.41273 11.34695 9917 ft 267 kts 180°
2026-04-18 08:12 63.39377 11.34735 10458 ft 281 kts 181°
2026-04-18 08:13 63.37417 11.33740 10788 ft 300 kts 205°
2026-04-18 08:13 63.35707 11.30851 11085 ft 322 kts 226°
2026-04-18 08:13 63.34167 11.27057 11451 ft 336 kts 225°
2026-04-18 08:13 63.32576 11.23184 12105 ft 341 kts 225°
2026-04-18 08:14 63.30968 11.19258 12810 ft 346 kts 225°
2026-04-18 08:14 63.29361 11.15337 13502 ft 349 kts 225°
2026-04-18 08:14 63.27715 11.11321 14139 ft 354 kts 226°
2026-04-18 08:14 63.26052 11.07272 14741 ft 357 kts 226°
2026-04-18 08:15 63.24369 11.03179 15330 ft 360 kts 226°
2026-04-18 08:15 63.22671 10.99062 15903 ft 363 kts 226°
2026-04-18 08:15 63.20957 10.94911 16492 ft 366 kts 226°
2026-04-18 08:15 63.19232 10.90742 17040 ft 369 kts 226°
2026-04-18 08:16 63.17486 10.86529 17617 ft 372 kts 226°
2026-04-18 08:16 63.15728 10.82298 18154 ft 375 kts 226°
2026-04-18 08:16 63.13978 10.78092 18666 ft 378 kts 226°
2026-04-18 08:16 63.12140 10.73912 19133 ft 379 kts 218°
2026-04-18 08:17 63.09880 10.70963 19623 ft 379 kts 200°
2026-04-18 08:17 63.07306 10.69708 20053 ft 382 kts 184°
2026-04-18 08:17 63.04635 10.69620 20526 ft 385 kts 181°
2026-04-18 08:17 63.01948 10.69634 20935 ft 388 kts 180°
2026-04-18 08:18 62.99233 10.69697 21397 ft 391 kts 180°
2026-04-18 08:18 62.96511 10.69789 21864 ft 393 kts 180°
2026-04-18 08:18 62.93801 10.69901 22287 ft 396 kts 179°
2026-04-18 08:18 62.91050 10.70023 22762 ft 397 kts 179°
2026-04-18 08:19 62.88272 10.70147 23169 ft 400 kts 179°
2026-04-18 08:19 62.85485 10.70273 23600 ft 402 kts 179°
2026-04-18 08:19 62.82676 10.70260 23968 ft 404 kts 183°
2026-04-18 08:19 62.79862 10.70022 24324 ft 406 kts 182°
2026-04-18 08:20 62.77032 10.69812 24716 ft 407 kts 182°
2026-04-18 08:20 62.74200 10.69616 25074 ft 409 kts 182°
2026-04-18 08:20 62.71385 10.69425 25420 ft 411 kts 182°
2026-04-18 08:20 62.68525 10.69233 25746 ft 412 kts 182°
2026-04-18 08:21 62.65653 10.69042 26081 ft 414 kts 182°
2026-04-18 08:21 62.62761 10.68849 26390 ft 416 kts 182°
2026-04-18 08:21 62.59861 10.68656 26700 ft 419 kts 182°
2026-04-18 08:21 62.56941 10.68463 27017 ft 420 kts 182°
2026-04-18 08:22 62.54014 10.68269 27340 ft 422 kts 182°
2026-04-18 08:22 62.51073 10.68074 27642 ft 424 kts 182°
2026-04-18 08:22 62.48112 10.67879 27931 ft 426 kts 182°
2026-04-18 08:22 62.45144 10.67684 28217 ft 428 kts 182°
2026-04-18 08:23 62.42159 10.67488 28511 ft 430 kts 182°
2026-04-18 08:23 62.39209 10.67294 28807 ft 431 kts 182°
2026-04-18 08:23 62.36207 10.67098 29092 ft 433 kts 182°
2026-04-18 08:23 62.33188 10.66901 29373 ft 434 kts 182°
2026-04-18 08:24 62.30159 10.66703 29640 ft 436 kts 182°
2026-04-18 08:24 62.27123 10.66506 29928 ft 437 kts 182°
2026-04-18 08:24 62.24083 10.66309 30221 ft 438 kts 182°
2026-04-18 08:24 62.21030 10.66111 30554 ft 437 kts 182°
2026-04-18 08:25 62.17993 10.65915 30847 ft 436 kts 182°
2026-04-18 08:25 62.14961 10.65718 31131 ft 436 kts 183°
2026-04-18 08:25 62.11935 10.65274 31399 ft 436 kts 185°
2026-04-18 08:25 62.08955 10.64787 31683 ft 436 kts 185°
2026-04-18 08:26 62.05936 10.64317 31951 ft 435 kts 185°
2026-04-18 08:26 62.02911 10.63856 32184 ft 436 kts 185°
2026-04-18 08:26 61.99871 10.63395 32214 ft 442 kts 185°
2026-04-18 08:27 61.93670 10.62459 32206 ft 451 kts 185°
2026-04-18 08:27 61.87475 10.61529 32215 ft 438 kts 185°
2026-04-18 08:28 61.81483 10.60633 32216 ft 433 kts 185°
2026-04-18 08:28 61.75471 10.59737 32216 ft 433 kts 186°
2026-04-18 08:29 61.69457 10.58845 32215 ft 433 kts 186°
2026-04-18 08:29 61.63434 10.57954 32212 ft 433 kts 186°
2026-04-18 08:30 61.57414 10.57068 32212 ft 433 kts 186°
2026-04-18 08:30 61.51396 10.56185 32214 ft 433 kts 186°
2026-04-18 08:31 61.45430 10.55313 32215 ft 433 kts 186°
2026-04-18 08:31 61.39413 10.54438 32216 ft 433 kts 186°
2026-04-18 08:32 61.33396 10.53565 32212 ft 433 kts 186°
2026-04-18 08:32 61.27376 10.52696 32213 ft 433 kts 186°
2026-04-18 08:33 61.21358 10.51829 32217 ft 433 kts 186°
2026-04-18 08:33 61.15380 10.50973 32208 ft 433 kts 186°
2026-04-18 08:34 61.09370 10.50115 32216 ft 433 kts 186°
2026-04-18 08:34 61.03357 10.49259 32210 ft 433 kts 186°
2026-04-18 08:35 60.97337 10.48406 32203 ft 433 kts 186°
2026-04-18 08:35 60.91331 10.47558 32209 ft 433 kts 187°
2026-04-18 08:36 60.85347 10.46716 32201 ft 433 kts 187°
2026-04-18 08:36 60.79340 10.45875 32203 ft 433 kts 187°
2026-04-18 08:37 60.73327 10.45036 32198 ft 433 kts 187°
2026-04-18 08:37 60.67325 10.44201 32200 ft 432 kts 187°
2026-04-18 08:38 60.61320 10.43369 32194 ft 432 kts 187°
2026-04-18 08:38 60.55320 10.42541 32193 ft 432 kts 187°
2026-04-18 08:39 60.49369 10.41723 32182 ft 431 kts 187°
2026-04-18 08:39 60.43384 10.40902 32184 ft 431 kts 187°
2026-04-18 08:40 60.37409 10.40086 32188 ft 431 kts 187°
2026-04-18 08:40 60.31429 10.39273 32188 ft 430 kts 187°
2026-04-18 08:41 60.25502 10.38470 32183 ft 430 kts 187°
2026-04-18 08:41 60.19541 10.37665 32188 ft 429 kts 187°
2026-04-18 08:42 60.13590 10.36865 32199 ft 429 kts 187°
2026-04-18 08:42 60.07642 10.36067 32191 ft 426 kts 187°
2026-04-18 08:43 60.01723 10.35277 32201 ft 426 kts 187°
2026-04-18 08:43 59.95850 10.34495 32193 ft 426 kts 188°
2026-04-18 08:44 59.89942 10.33712 32189 ft 425 kts 188°
2026-04-18 08:44 59.84031 10.32931 32193 ft 425 kts 188°
2026-04-18 08:45 59.78126 10.32153 32196 ft 425 kts 188°
2026-04-18 08:45 59.72227 10.31380 32199 ft 425 kts 188°
2026-04-18 08:46 59.66366 10.30613 32204 ft 424 kts 188°
2026-04-18 08:46 59.60465 10.29845 32203 ft 425 kts 188°
2026-04-18 08:47 59.54578 10.29080 32204 ft 424 kts 188°
2026-04-18 08:47 59.48682 10.28317 32208 ft 425 kts 188°
2026-04-18 08:48 59.42785 10.27557 32208 ft 424 kts 188°
2026-04-18 08:48 59.36947 10.26807 32205 ft 424 kts 188°
2026-04-18 08:49 59.31058 10.26053 32210 ft 424 kts 188°
2026-04-18 08:49 59.25165 10.25301 32208 ft 424 kts 188°
2026-04-18 08:50 59.19281 10.24553 32210 ft 424 kts 188°
2026-04-18 08:50 59.13447 10.23813 32212 ft 423 kts 188°
2026-04-18 08:51 59.07569 10.23072 32206 ft 423 kts 188°
2026-04-18 08:51 59.01697 10.22333 32210 ft 423 kts 188°
2026-04-18 08:52 58.95821 10.21596 32209 ft 422 kts 188°
2026-04-18 08:52 58.89964 10.20864 32210 ft 422 kts 188°
2026-04-18 08:53 58.84100 10.20133 32207 ft 422 kts 188°
2026-04-18 08:53 58.78270 10.19410 32206 ft 422 kts 188°
2026-04-18 08:54 58.72412 10.18685 32206 ft 422 kts 188°
2026-04-18 08:54 58.66553 10.17962 32206 ft 422 kts 188°
2026-04-18 08:55 58.60697 10.17243 32207 ft 421 kts 188°
2026-04-18 08:55 58.54852 10.16527 32204 ft 422 kts 188°
2026-04-18 08:56 58.49035 10.15817 32356 ft 422 kts 188°
2026-04-18 08:56 58.46096 10.15459 32642 ft 421 kts 188°
2026-04-18 08:56 58.43178 10.15104 32927 ft 421 kts 188°
2026-04-18 08:56 58.40267 10.14751 33215 ft 420 kts 188°
2026-04-18 08:57 58.34435 10.14044 33776 ft 418 kts 188°
2026-04-18 08:57 58.31535 10.13694 34063 ft 417 kts 188°
2026-04-18 08:57 58.28648 10.13346 34219 ft 417 kts 188°
2026-04-18 08:58 58.22874 10.12652 34203 ft 414 kts 188°
2026-04-18 08:58 58.17145 10.12181 34205 ft 416 kts 186°
2026-04-18 08:59 58.11345 10.11969 34194 ft 416 kts 186°
2026-04-18 08:59 58.05556 10.11724 34197 ft 416 kts 186°
2026-04-18 09:00 57.99816 10.11480 34194 ft 416 kts 186°
2026-04-18 09:00 57.94026 10.11233 34193 ft 416 kts 186°
2026-04-18 09:01 57.88237 10.10988 34194 ft 416 kts 186°
2026-04-18 09:01 57.82450 10.10743 34189 ft 416 kts 186°
2026-04-18 09:02 57.76664 10.10499 34192 ft 416 kts 186°
2026-04-18 09:02 57.70924 10.10258 34189 ft 416 kts 186°
2026-04-18 09:03 57.65133 10.10016 34193 ft 416 kts 186°
2026-04-18 09:03 57.59347 10.09775 34187 ft 416 kts 186°
2026-04-18 09:04 57.53572 10.09534 34186 ft 416 kts 186°
2026-04-18 09:04 57.47821 10.09296 34188 ft 416 kts 186°
2026-04-18 09:05 57.42044 10.09057 34191 ft 416 kts 186°
2026-04-18 09:05 57.36259 10.08819 34178 ft 416 kts 186°
2026-04-18 09:06 57.30483 10.08582 34189 ft 416 kts 186°
2026-04-18 09:06 57.24690 10.08344 34156 ft 416 kts 186°
2026-04-18 09:07 57.18932 10.08109 34159 ft 416 kts 186°
2026-04-18 09:07 57.13141 10.07873 34161 ft 416 kts 186°
2026-04-18 09:08 57.07356 10.07638 34156 ft 416 kts 186°
2026-04-18 09:08 57.01561 10.07404 34169 ft 417 kts 186°
2026-04-18 09:09 56.95768 10.07171 34164 ft 417 kts 186°
2026-04-18 09:09 56.90007 10.06939 34172 ft 416 kts 186°
2026-04-18 09:10 56.84212 10.06707 34170 ft 417 kts 186°
2026-04-18 09:10 56.78410 10.06475 34181 ft 417 kts 186°
2026-04-18 09:11 56.72614 10.06244 34183 ft 417 kts 186°
2026-04-18 09:11 56.66813 10.06014 34177 ft 417 kts 186°
2026-04-18 09:12 56.61006 10.05784 34182 ft 417 kts 186°
2026-04-18 09:12 56.55237 10.05557 34184 ft 417 kts 186°
2026-04-18 09:13 56.49424 10.05328 34180 ft 418 kts 186°
2026-04-18 09:13 56.43616 10.05100 34180 ft 418 kts 186°
2026-04-18 09:14 56.37802 10.04873 34185 ft 418 kts 186°
2026-04-18 09:14 56.32020 10.04648 34184 ft 418 kts 186°
2026-04-18 09:15 56.26202 10.04421 34184 ft 418 kts 186°
2026-04-18 09:15 56.20385 10.04196 34178 ft 419 kts 186°
2026-04-18 09:16 56.14562 10.03971 34184 ft 419 kts 186°
2026-04-18 09:16 56.08732 10.03747 34189 ft 419 kts 186°
2026-04-18 09:17 56.02920 10.03524 34179 ft 418 kts 186°
2026-04-18 09:17 55.97135 10.03302 34188 ft 418 kts 186°
2026-04-18 09:18 55.91308 10.03080 34185 ft 418 kts 186°
2026-04-18 09:18 55.85490 10.02859 34174 ft 418 kts 186°
2026-04-18 09:19 55.79672 10.02638 34184 ft 418 kts 186°
2026-04-18 09:19 55.73851 10.02418 34179 ft 418 kts 186°
2026-04-18 09:20 55.68083 10.02201 34186 ft 418 kts 186°
2026-04-18 09:20 55.62258 10.01982 34187 ft 418 kts 186°
2026-04-18 09:21 55.56441 10.01764 34177 ft 418 kts 186°
2026-04-18 09:21 55.50620 10.01546 34179 ft 419 kts 186°
2026-04-18 09:22 55.44792 10.01329 34178 ft 419 kts 186°
2026-04-18 09:22 55.39000 10.01114 34173 ft 419 kts 186°
2026-04-18 09:23 55.33169 10.00898 34174 ft 419 kts 186°
2026-04-18 09:23 55.27339 10.00682 34177 ft 419 kts 186°
2026-04-18 09:24 55.21495 10.00467 34169 ft 420 kts 186°
2026-04-18 09:24 55.15662 10.00253 34162 ft 420 kts 186°
2026-04-18 09:25 55.09816 10.00039 34160 ft 420 kts 186°
2026-04-18 09:25 55.04014 9.99827 34159 ft 420 kts 186°
2026-04-18 09:26 54.98169 9.99614 34157 ft 420 kts 186°
2026-04-18 09:26 54.92325 9.99402 34158 ft 421 kts 186°
2026-04-18 09:27 54.86598 9.98020 34155 ft 415 kts 195°
2026-04-18 09:27 54.80923 9.96184 34155 ft 415 kts 195°
2026-04-18 09:28 54.75247 9.94330 34163 ft 415 kts 195°
2026-04-18 09:28 54.69592 9.92487 34156 ft 416 kts 195°
2026-04-18 09:29 54.63911 9.90650 34156 ft 416 kts 195°
2026-04-18 09:29 54.58219 9.88826 34152 ft 416 kts 195°
2026-04-18 09:30 54.52521 9.87005 34155 ft 416 kts 195°
2026-04-18 09:30 54.47787 9.85486 34159 ft 416 kts 195°
2026-04-18 09:31 54.41176 9.83369 34158 ft 416 kts 195°
2026-04-18 09:31 54.35476 9.81549 34128 ft 416 kts 195°
2026-04-18 09:32 54.29776 9.79734 34131 ft 417 kts 194°
2026-04-18 09:32 54.25036 9.78222 34148 ft 416 kts 195°
2026-04-18 09:33 54.18442 9.75946 34157 ft 417 kts 195°
2026-04-18 09:33 54.12769 9.74003 34149 ft 417 kts 195°
2026-04-18 09:34 54.07992 9.72371 34142 ft 417 kts 195°
2026-04-18 09:34 54.02333 9.70445 34140 ft 418 kts 195°
2026-04-18 09:35 53.96634 9.68509 34138 ft 418 kts 195°
2026-04-18 09:35 53.90929 9.66577 34139 ft 418 kts 195°
2026-04-18 09:36 53.85220 9.64649 34145 ft 419 kts 195°
2026-04-18 09:36 53.79540 9.62735 34144 ft 419 kts 195°
2026-04-18 09:37 53.73819 9.60814 34150 ft 419 kts 195°
2026-04-18 09:37 53.68097 9.58897 34154 ft 420 kts 195°
2026-04-18 09:38 53.62285 9.57622 34154 ft 423 kts 188°
2026-04-18 09:38 53.56437 9.56920 34147 ft 424 kts 188°
2026-04-18 09:39 53.50576 9.55948 34166 ft 422 kts 192°
2026-04-18 09:39 53.44741 9.54653 34163 ft 423 kts 191°
2026-04-18 09:40 53.38917 9.53404 34154 ft 424 kts 191°
2026-04-18 09:40 53.33072 9.52159 34157 ft 424 kts 191°
2026-04-18 09:41 53.27211 9.50914 34160 ft 425 kts 191°
2026-04-18 09:41 53.21352 9.49673 34152 ft 425 kts 191°
2026-04-18 09:42 53.15478 9.48433 34160 ft 426 kts 191°
2026-04-18 09:42 53.09602 9.47196 34145 ft 425 kts 191°
2026-04-18 09:43 53.03766 9.45969 34153 ft 426 kts 191°
2026-04-18 09:43 52.97876 9.44721 34154 ft 427 kts 191°
2026-04-18 09:44 52.91991 9.43460 34153 ft 427 kts 191°
2026-04-18 09:44 52.86089 9.42200 34152 ft 428 kts 191°
2026-04-18 09:45 52.80221 9.40951 34149 ft 428 kts 191°
2026-04-18 09:45 52.74311 9.39696 34154 ft 429 kts 191°
2026-04-18 09:46 52.68393 9.38442 34151 ft 429 kts 191°
2026-04-18 09:46 52.62485 9.37148 34154 ft 429 kts 193°
2026-04-18 09:47 52.56581 9.35583 34157 ft 429 kts 193°
2026-04-18 09:47 52.50690 9.34053 34155 ft 430 kts 193°
2026-04-18 09:48 52.44812 9.32532 34155 ft 430 kts 193°
2026-04-18 09:48 52.38889 9.31005 34153 ft 431 kts 193°
2026-04-18 09:49 52.32979 9.29470 34177 ft 431 kts 193°
2026-04-18 09:49 52.27082 9.27931 34177 ft 431 kts 193°
2026-04-18 09:50 52.21123 9.26619 34183 ft 434 kts 190°
2026-04-18 09:50 52.15116 9.25513 34173 ft 434 kts 190°
2026-04-18 09:51 52.09113 9.24386 34169 ft 435 kts 190°
2026-04-18 09:51 52.03135 9.23038 34172 ft 434 kts 193°
2026-04-18 09:52 51.97170 9.21500 34164 ft 435 kts 192°
2026-04-18 09:52 51.91228 9.19993 34154 ft 435 kts 192°
2026-04-18 09:53 51.85224 9.18628 34156 ft 436 kts 191°
2026-04-18 09:53 51.79212 9.17318 34159 ft 436 kts 191°
2026-04-18 09:54 51.73195 9.16002 34160 ft 436 kts 191°
2026-04-18 09:54 51.67190 9.14694 34165 ft 437 kts 191°
2026-04-18 09:55 51.61191 9.13389 34168 ft 438 kts 191°
2026-04-18 09:55 51.55139 9.12078 34181 ft 438 kts 191°
2026-04-18 09:56 51.49136 9.10521 34178 ft 436 kts 196°
2026-04-18 09:56 51.43187 9.08478 34170 ft 437 kts 195°
2026-04-18 09:57 51.37281 9.06521 34178 ft 438 kts 195°
2026-04-18 09:57 51.31296 9.04541 34175 ft 438 kts 195°
2026-04-18 09:58 51.25336 9.02519 34172 ft 438 kts 195°
2026-04-18 09:58 51.19400 9.00517 34176 ft 439 kts 195°
2026-04-18 09:59 51.13419 8.98504 34172 ft 439 kts 195°
2026-04-18 10:00 51.04391 8.95745 34177 ft 440 kts 195°
2026-04-18 10:00 50.98401 8.93744 34170 ft 440 kts 195°
2026-04-18 10:01 50.92391 8.91759 34171 ft 441 kts 195°
2026-04-18 10:01 50.86429 8.89798 34166 ft 441 kts 195°
2026-04-18 10:02 50.80415 8.87764 34169 ft 441 kts 196°
2026-04-18 10:02 50.74418 8.85686 34170 ft 441 kts 196°
2026-04-18 10:03 50.68416 8.83618 34169 ft 442 kts 196°
2026-04-18 10:03 50.62443 8.81584 34169 ft 443 kts 195°
2026-04-18 10:04 50.56424 8.79579 34165 ft 443 kts 195°
2026-04-18 10:04 50.50378 8.77568 34186 ft 444 kts 195°
2026-04-18 10:05 50.44327 8.75559 34174 ft 444 kts 195°
2026-04-18 10:05 50.38290 8.73561 34167 ft 445 kts 195°
2026-04-18 10:06 50.32226 8.71558 34173 ft 445 kts 195°
2026-04-18 10:06 50.26286 8.69602 34180 ft 446 kts 195°
2026-04-18 10:07 50.20208 8.67606 34173 ft 446 kts 195°
2026-04-18 10:07 50.14192 8.65635 34182 ft 447 kts 195°
2026-04-18 10:08 50.08043 8.63625 34184 ft 447 kts 195°
2026-04-18 10:08 50.02001 8.61655 34180 ft 447 kts 195°
2026-04-18 10:09 49.95897 8.59672 34180 ft 448 kts 195°
2026-04-18 10:09 49.89801 8.57694 34180 ft 448 kts 195°
2026-04-18 10:10 49.83695 8.55719 34172 ft 448 kts 195°
2026-04-18 10:10 49.77585 8.54065 34179 ft 451 kts 188°
2026-04-18 10:11 49.71333 8.53226 34172 ft 452 kts 188°
2026-04-18 10:11 49.65054 8.52396 34175 ft 453 kts 188°
2026-04-18 10:12 49.58785 8.51573 34181 ft 453 kts 188°
2026-04-18 10:12 49.52533 8.50754 34184 ft 453 kts 188°
2026-04-18 10:13 49.46253 8.49934 34181 ft 453 kts 188°
2026-04-18 10:13 49.39982 8.49116 34182 ft 453 kts 188°
2026-04-18 10:14 49.33683 8.48297 34178 ft 453 kts 188°
2026-04-18 10:14 49.27409 8.47481 34178 ft 454 kts 188°
2026-04-18 10:15 49.21112 8.46661 34173 ft 454 kts 188°
2026-04-18 10:15 49.14852 8.45849 34174 ft 454 kts 188°
2026-04-18 10:16 49.08624 8.45042 34173 ft 454 kts 188°
2026-04-18 10:16 49.02455 8.43365 34184 ft 451 kts 196°
2026-04-18 10:17 48.96331 8.41251 34181 ft 451 kts 196°
2026-04-18 10:17 48.90251 8.39141 34175 ft 451 kts 196°
2026-04-18 10:18 48.84143 8.37024 34178 ft 451 kts 196°
2026-04-18 10:18 48.78024 8.34873 34185 ft 451 kts 197°
2026-04-18 10:19 48.71923 8.32639 34174 ft 450 kts 197°
2026-04-18 10:19 48.65823 8.30421 34182 ft 451 kts 197°
2026-04-18 10:20 48.59773 8.28227 34182 ft 451 kts 197°
2026-04-18 10:20 48.53643 8.26009 34179 ft 451 kts 197°
2026-04-18 10:21 48.47443 8.24939 34180 ft 458 kts 176°
2026-04-18 10:21 48.41093 8.26349 34176 ft 462 kts 174°
2026-04-18 10:22 48.34789 8.27837 34177 ft 462 kts 174°
2026-04-18 10:22 48.28438 8.29370 34178 ft 463 kts 174°
2026-04-18 10:23 48.22078 8.30904 34177 ft 462 kts 174°
2026-04-18 10:23 48.15743 8.32437 34181 ft 462 kts 174°
2026-04-18 10:24 48.09423 8.33971 34175 ft 462 kts 174°
2026-04-18 10:24 48.03082 8.35507 34180 ft 463 kts 174°
2026-04-18 10:25 47.96728 8.37043 34175 ft 462 kts 174°
2026-04-18 10:25 47.90366 8.38576 34181 ft 463 kts 174°
2026-04-18 10:25 47.87181 8.39342 34283 ft 464 kts 174°
2026-04-18 10:26 47.84006 8.40103 34557 ft 463 kts 174°
2026-04-18 10:26 47.80868 8.40854 34797 ft 463 kts 174°
2026-04-18 10:27 47.80016 8.41058 34857 ft 463 kts 174°
2026-04-18 10:27 47.76791 8.41828 35111 ft 463 kts 174°
2026-04-18 10:27 47.73614 8.42586 35350 ft 462 kts 174°
2026-04-18 10:27 47.70446 8.43341 35576 ft 462 kts 174°
2026-04-18 10:28 47.67260 8.43874 35826 ft 459 kts 178°
2026-04-18 10:28 47.64073 8.44313 36059 ft 459 kts 178°
2026-04-18 10:28 47.60945 8.44771 36265 ft 459 kts 177°
2026-04-18 10:28 47.57769 8.45245 36483 ft 459 kts 177°
2026-04-18 10:29 47.54590 8.45724 36690 ft 458 kts 177°
2026-04-18 10:29 47.51424 8.46200 36885 ft 457 kts 177°
2026-04-18 10:29 47.48270 8.46674 37076 ft 457 kts 177°
2026-04-18 10:29 47.45105 8.47150 37220 ft 457 kts 177°
2026-04-18 10:30 47.41935 8.47626 37220 ft 457 kts 177°
2026-04-18 10:30 47.35661 8.48566 37211 ft 456 kts 177°
2026-04-18 10:31 47.29341 8.49512 37203 ft 457 kts 177°
2026-04-18 10:31 47.23019 8.50440 37209 ft 457 kts 177°
2026-04-18 10:32 47.16694 8.51360 37184 ft 457 kts 177°
2026-04-18 10:32 47.10361 8.52281 37186 ft 457 kts 177°
2026-04-18 10:33 47.04074 8.53191 37201 ft 457 kts 177°
2026-04-18 10:33 46.97742 8.54106 37218 ft 458 kts 177°
2026-04-18 10:34 46.91408 8.55019 37203 ft 458 kts 177°
2026-04-18 10:34 46.85056 8.55931 37199 ft 459 kts 176°
2026-04-18 10:35 46.78751 8.56836 37228 ft 460 kts 177°
2026-04-18 10:35 46.72394 8.57745 37204 ft 458 kts 177°
2026-04-18 10:36 46.66031 8.58652 37217 ft 459 kts 177°
2026-04-18 10:36 46.59733 8.59550 37193 ft 458 kts 177°
2026-04-18 10:37 46.53372 8.60452 37199 ft 459 kts 177°
2026-04-18 10:37 46.47022 8.61350 37183 ft 459 kts 177°
2026-04-18 10:38 46.40654 8.62251 37175 ft 460 kts 177°
2026-04-18 10:38 46.34301 8.63147 37161 ft 458 kts 177°
2026-04-18 10:39 46.27982 8.64036 37144 ft 460 kts 177°
2026-04-18 10:39 46.21615 8.64930 37165 ft 460 kts 177°
2026-04-18 10:40 46.15240 8.65822 37140 ft 459 kts 177°
2026-04-18 10:40 46.12062 8.65873 37139 ft 455 kts 191°
2026-04-18 10:40 46.09043 8.64738 37162 ft 446 kts 207°
2026-04-18 10:41 46.03568 8.60641 37165 ft 447 kts 212°
2026-04-18 10:41 45.98142 8.56259 37148 ft 447 kts 213°
2026-04-18 10:42 45.92750 8.51817 37156 ft 447 kts 213°
2026-04-18 10:42 45.87357 8.47367 37156 ft 447 kts 213°
2026-04-18 10:43 45.82007 8.42960 37144 ft 447 kts 213°
2026-04-18 10:43 45.76613 8.38529 37154 ft 447 kts 213°
2026-04-18 10:44 45.71214 8.34101 37162 ft 447 kts 213°
2026-04-18 10:44 45.65880 8.29738 37149 ft 447 kts 213°
2026-04-18 10:45 45.60412 8.25275 37152 ft 448 kts 213°
2026-04-18 10:45 45.55035 8.20896 37151 ft 448 kts 212°
2026-04-18 10:46 45.49654 8.16522 37150 ft 448 kts 213°
2026-04-18 10:46 45.44249 8.12141 37149 ft 448 kts 212°
2026-04-18 10:47 45.38848 8.07771 37150 ft 448 kts 212°
2026-04-18 10:47 45.33421 8.03390 37157 ft 448 kts 212°
2026-04-18 10:48 45.28009 7.99032 37155 ft 448 kts 212°
2026-04-18 10:48 45.22592 7.94678 37156 ft 448 kts 212°
2026-04-18 10:49 45.17161 7.90323 37149 ft 448 kts 212°
2026-04-18 10:49 45.11772 7.86012 37161 ft 448 kts 212°
2026-04-18 10:50 45.06343 7.81678 37157 ft 448 kts 212°
2026-04-18 10:50 45.00907 7.77347 37158 ft 448 kts 212°
2026-04-18 10:51 44.95473 7.73029 37156 ft 448 kts 212°
2026-04-18 10:51 44.90079 7.68751 37153 ft 449 kts 212°
2026-04-18 10:52 44.84626 7.64435 37157 ft 449 kts 212°
2026-04-18 10:52 44.79177 7.60132 37158 ft 449 kts 212°
2026-04-18 10:53 44.73724 7.55836 37158 ft 449 kts 212°
2026-04-18 10:53 44.68301 7.51573 37154 ft 450 kts 212°
2026-04-18 10:54 44.62832 7.47283 37163 ft 450 kts 212°
2026-04-18 10:54 44.57369 7.43006 37146 ft 450 kts 212°
2026-04-18 10:55 44.51895 7.38730 37155 ft 450 kts 212°
2026-04-18 10:55 44.46463 7.34496 37160 ft 450 kts 212°
2026-04-18 10:56 44.40980 7.30232 37162 ft 450 kts 212°
2026-04-18 10:56 44.35498 7.25976 37208 ft 451 kts 212°
2026-04-18 10:57 44.30015 7.21729 37170 ft 451 kts 212°
2026-04-18 10:57 44.24550 7.17504 37171 ft 452 kts 212°
2026-04-18 10:58 44.18787 7.14063 37197 ft 454 kts 198°
2026-04-18 10:58 44.12704 7.11584 37166 ft 457 kts 199°
2026-04-18 10:59 44.06578 7.09107 37172 ft 457 kts 199°
2026-04-18 10:59 44.00513 7.06665 37194 ft 458 kts 199°
2026-04-18 11:00 43.94435 7.04223 37176 ft 457 kts 199°
2026-04-18 11:00 43.88305 7.01766 37135 ft 458 kts 199°
2026-04-18 11:01 43.82184 6.99318 37166 ft 459 kts 199°
2026-04-18 11:01 43.76095 6.96887 37175 ft 459 kts 199°
2026-04-18 11:02 43.70147 6.93880 37168 ft 452 kts 211°
2026-04-18 11:02 43.67344 6.91890 37144 ft 454 kts 210°
2026-04-18 11:02 43.61705 6.87938 37158 ft 455 kts 210°
2026-04-18 11:03 43.56075 6.83984 37155 ft 455 kts 210°
2026-04-18 11:03 43.50469 6.80053 37161 ft 455 kts 210°
2026-04-18 11:04 43.44829 6.76107 37148 ft 455 kts 210°
2026-04-18 11:04 43.39176 6.72159 37149 ft 456 kts 210°
2026-04-18 11:05 43.33511 6.68213 37137 ft 456 kts 210°
2026-04-18 11:05 43.27894 6.64307 37134 ft 456 kts 210°
2026-04-18 11:06 43.22226 6.60366 37131 ft 456 kts 210°
2026-04-18 11:06 43.16592 6.56404 37132 ft 456 kts 210°
2026-04-18 11:07 43.10934 6.52439 37133 ft 456 kts 210°
2026-04-18 11:07 43.05285 6.48486 37131 ft 457 kts 210°
2026-04-18 11:08 42.99661 6.44561 37132 ft 457 kts 210°
2026-04-18 11:08 42.93999 6.40617 37132 ft 457 kts 210°
2026-04-18 11:09 42.88333 6.36678 37133 ft 457 kts 210°
2026-04-18 11:09 42.82670 6.32751 37130 ft 457 kts 210°
2026-04-18 11:10 42.77025 6.28843 37126 ft 458 kts 210°
2026-04-18 11:10 42.71345 6.24920 37131 ft 458 kts 210°
2026-04-18 11:11 42.65670 6.21007 37129 ft 458 kts 210°
2026-04-18 11:11 42.60013 6.17114 37130 ft 458 kts 210°
2026-04-18 11:12 42.54326 6.13211 37135 ft 459 kts 210°
2026-04-18 11:12 42.48627 6.09306 37137 ft 459 kts 210°
2026-04-18 11:13 42.42931 6.05411 37139 ft 459 kts 210°
2026-04-18 11:13 42.37225 6.01517 37137 ft 459 kts 210°
2026-04-18 11:14 42.31557 5.97658 37139 ft 460 kts 210°
2026-04-18 11:14 42.25845 5.93776 37143 ft 460 kts 210°
2026-04-18 11:15 42.20122 5.89895 37142 ft 460 kts 210°
2026-04-18 11:15 42.14396 5.86020 37143 ft 461 kts 210°
2026-04-18 11:16 42.08699 5.82172 37143 ft 461 kts 210°
2026-04-18 11:16 42.02961 5.78304 37145 ft 461 kts 210°
2026-04-18 11:17 41.97222 5.74444 37147 ft 461 kts 210°
2026-04-18 11:17 41.91476 5.70587 37150 ft 462 kts 210°
2026-04-18 11:18 41.85766 5.66760 37150 ft 462 kts 210°
2026-04-18 11:18 41.80011 5.62909 37152 ft 462 kts 210°
2026-04-18 11:19 41.74304 5.58938 37151 ft 462 kts 211°
2026-04-18 11:19 41.68603 5.54956 37152 ft 462 kts 211°
2026-04-18 11:20 41.62935 5.51007 37156 ft 463 kts 210°
2026-04-18 11:20 41.57233 5.47043 37155 ft 463 kts 210°
2026-04-18 11:21 41.51512 5.43074 37152 ft 463 kts 210°
2026-04-18 11:21 41.45792 5.39113 37154 ft 463 kts 210°
2026-04-18 11:22 41.40066 5.35156 37155 ft 463 kts 210°
2026-04-18 11:22 41.34385 5.31238 37156 ft 463 kts 210°
2026-04-18 11:23 41.28663 5.27300 37157 ft 463 kts 210°
2026-04-18 11:23 41.22926 5.23359 37157 ft 465 kts 210°
2026-04-18 11:24 41.20054 5.21390 36823 ft 462 kts 210°
2026-04-18 11:24 41.17207 5.19439 36240 ft 460 kts 210°
2026-04-18 11:24 41.14377 5.17501 35679 ft 457 kts 210°
2026-04-18 11:24 41.11592 5.15596 35133 ft 455 kts 210°
2026-04-18 11:25 41.08783 5.13678 34584 ft 452 kts 210°
2026-04-18 11:25 41.05982 5.11766 34017 ft 454 kts 210°
2026-04-18 11:25 41.03159 5.09841 33376 ft 456 kts 210°
2026-04-18 11:25 41.00351 5.07929 32750 ft 453 kts 210°
2026-04-18 11:26 40.97548 5.06021 32168 ft 452 kts 209°
2026-04-18 11:26 40.94761 5.04125 31573 ft 450 kts 209°
2026-04-18 11:26 40.91980 5.02236 30998 ft 449 kts 209°
2026-04-18 11:26 40.89239 5.00376 30432 ft 448 kts 209°
2026-04-18 11:27 40.86476 4.98503 29800 ft 446 kts 209°
2026-04-18 11:27 40.83714 4.96632 29146 ft 445 kts 209°
2026-04-18 11:27 40.80962 4.94770 28504 ft 444 kts 208°
2026-04-18 11:27 40.78218 4.92914 27900 ft 442 kts 209°
2026-04-18 11:28 40.75483 4.91067 27285 ft 440 kts 209°
2026-04-18 11:28 40.72765 4.89233 26710 ft 439 kts 209°
2026-04-18 11:28 40.70051 4.87403 26125 ft 437 kts 209°
2026-04-18 11:28 40.67349 4.85583 25568 ft 435 kts 209°
2026-04-18 11:29 40.64692 4.83795 25028 ft 433 kts 208°
2026-04-18 11:29 40.62014 4.81995 24497 ft 432 kts 208°
2026-04-18 11:29 40.59349 4.80204 23976 ft 430 kts 208°
2026-04-18 11:29 40.56688 4.78417 23410 ft 428 kts 208°
2026-04-18 11:30 40.54033 4.76637 22814 ft 427 kts 208°
2026-04-18 11:30 40.51395 4.74870 22229 ft 425 kts 208°
2026-04-18 11:30 40.48760 4.73106 21657 ft 424 kts 208°
2026-04-18 11:30 40.46143 4.71355 21109 ft 422 kts 208°
2026-04-18 11:31 40.43531 4.69609 20565 ft 420 kts 208°
2026-04-18 11:31 40.40962 4.67893 20039 ft 419 kts 208°
2026-04-18 11:31 40.38401 4.66048 18952 ft 429 kts 216°
2026-04-18 11:31 40.35898 4.63784 17786 ft 443 kts 215°
2026-04-18 11:32 40.33318 4.61538 16951 ft 445 kts 214°
2026-04-18 11:32 40.30776 4.59354 16287 ft 431 kts 214°
2026-04-18 11:32 40.28257 4.57204 15177 ft 431 kts 214°
2026-04-18 11:32 40.25766 4.55083 14253 ft 424 kts 213°
2026-04-18 11:33 40.23316 4.53001 13296 ft 418 kts 213°
2026-04-18 11:33 40.20932 4.50975 12403 ft 410 kts 213°
2026-04-18 11:33 40.18524 4.48932 11524 ft 403 kts 213°
2026-04-18 11:33 40.16221 4.46981 10678 ft 397 kts 213°
2026-04-18 11:34 40.15902 4.46711 10560 ft 396 kts 213°
2026-04-18 11:34 40.13638 4.44795 9646 ft 391 kts 213°
2026-04-18 11:34 40.11402 4.42798 8915 ft 380 kts 220°
2026-04-18 11:35 40.09636 4.40375 8576 ft 359 kts 235°
2026-04-18 11:35 40.08413 4.37661 8330 ft 337 kts 248°
2026-04-18 11:35 40.07860 4.34864 8139 ft 311 kts 273°
2026-04-18 11:35 40.08386 4.32268 8077 ft 280 kts 305°
2026-04-18 11:36 40.09462 4.30335 8098 ft 256 kts 303°
2026-04-18 11:36 40.09916 4.28231 8180 ft 232 kts 269°
2026-04-18 11:36 40.09407 4.26344 8062 ft 217 kts 238°
2026-04-18 11:36 40.08318 4.25068 7626 ft 207 kts 208°
2026-04-18 11:37 40.06971 4.24607 7125 ft 199 kts 182°
2026-04-18 11:37 40.05572 4.24601 6542 ft 202 kts 182°
2026-04-18 11:37 40.04171 4.24488 5968 ft 201 kts 185°
2026-04-18 11:37 40.02784 4.24439 5277 ft 207 kts 173°
2026-04-18 11:38 40.01362 4.24766 4646 ft 206 kts 168°
2026-04-18 11:38 39.99949 4.24767 4065 ft 204 kts 191°
2026-04-18 11:38 39.98571 4.24461 3580 ft 201 kts 190°
2026-04-18 11:38 39.97197 4.24153 3150 ft 200 kts 191°
2026-04-18 11:39 39.95856 4.23860 2867 ft 191 kts 191°
2026-04-18 11:39 39.94544 4.23589 2508 ft 189 kts 191°
2026-04-18 11:39 39.93285 4.23329 2209 ft 182 kts 190°
2026-04-18 11:39 39.92031 4.23107 1752 ft 183 kts 191°
2026-04-18 11:40 39.90775 4.22848 1296 ft 181 kts 192°
2026-04-18 11:40 39.89591 4.22573 1005 ft 167 kts 192°
2026-04-18 11:40 39.88474 4.22339 657 ft 158 kts 194°
2026-04-18 11:40 39.87419 4.22111 382 ft 152 kts 194°
2026-04-18 11:41 39.86479 4.21914 307 ft 107 kts 188°
2026-04-18 11:41 39.85958 4.21806 304 ft 50 kts 189°
2026-04-18 11:41 39.85661 4.21757 298 ft 41 kts 176°
2026-04-18 11:41 39.85438 4.21826 286 ft 20 kts 160°
2026-04-18 11:42 39.85447 4.21942 286 ft 16 kts
2026-04-18 11:42 39.85575 4.21964 291 ft 20 kts
2026-04-18 11:42 39.85708 4.21990 293 ft 19 kts
2026-04-18 11:42 39.85836 4.22014 297 ft 18 kts
2026-04-18 11:43 39.85962 4.22041 299 ft 19 kts
2026-04-18 11:43 39.86100 4.22070 297 ft 21 kts
2026-04-18 11:43 39.86186 4.22184 293 ft 21 kts 95°
2026-04-18 11:43 39.86259 4.22276 292 ft 15 kts
2026-04-18 11:44 39.86345 4.22289 292 ft 5 kts 342°
2026-04-18 11:44 39.86357 4.22267 293 ft 2 kts 292°
2026-04-18 11:44 39.86371 4.22230 295 ft 6 kts 325°
2026-04-18 11:44 39.86386 4.22238 294 ft 0 kts 42°